Погода Максимкин Яр

Погода Максимкин Яр : погода сейчас, прогноз погоды и архив. Всё, что Вы хотите узнать о погоде Максимкин Яр!

Поиск расширенной информации на нашем сайте:

Другие новости

Новости СМИ2

Главная страница сайта

Новости сайта

03.07.2017

Напоминаем, что на нашем специализированном сайте Метеоцентр.Азия вы можете получить высокодетализированные автоматические прогнозы погоды по пунктам России, СНГ и мира в авиационном формате (включающие направление и скорость ветра, видимость, явления погоды, количество и форму облачности, нижнюю и верхнюю границу облачности).


Погода Максимкин Яр - сегодня

Время (UTC), дата Ветер
(°,м/с) 
Видим.   Явления Облачность Т
(°С)
Тd
(°С)
f(%) Тe
(°С)
Pmin
(гПа)
dP
(гПа)
Po
(мм)
O2
(г/м3)
Тmin Tmax R s Состояние
почвы
12 20.11.17 140 (ЮВ) 4000 м  слаб. снег  10/3 600 м средняя 
[Sc|As op]
-15.7 -17.3 87 -16  1030.1  0.3  762  327    -10.2  0.0     
15 20.11.17 160 (Ю) 20000 м  в посл. час снег  10/0 средняя 
[As op]
-10.7 -12.1 89 -11  1029.3  -0.5  762  321           
18 20.11.17 160 (Ю) 4000 м  слаб. снег  10/0 средняя 
[As op]
-8.6 -9.8 91 -8  1028  -1.2  761  317           
21 20.11.17 170 (Ю) 4000 м  слаб. снег  10/0 средняя 
[As op]
-6.7 -7.7 93 -6  1027.1  -0.8  760  315           
00 21.11.17 210 (ЮЗ) 4000 м  слаб. снег  10/0 средняя 
[As op]
-4.3 -5.2 93 -6  1026.6  -0.3  760  312  -15.7    27  равномерный
сухой снег
100% 
03 21.11.17 220 (ЮЗ) 4000 м  слаб. снег  10/6 600 м средняя 
[Sc|As op]
-3.6 -4.6 93 -5  1026.6  760  311           
06 21.11.17 230 (ЮЗ) 20000 м  в посл. час ливневой снег  10/10 600 м кучево-дожд. 
[Cb cap]
-2.5 -3.9 90 -5  1027  0.4  760  310           
09 21.11.17 230 (ЮЗ) 20000 м  в посл. час ливневой снег  10/10 600 м кучево-дожд. 
[Cb cap]
-2.7 -3.9 91 -4  1027.7  0.7  761  310           
12 21.11.17 220 (ЮЗ) 20000 м  {ливн. осадки}  10/10 600 м кучево-дожд. 
[Cb cap]
-3.3 -4.3 93 -3  1027.8  0.1  761  311    -2.4  0.7     
15 21.11.17 180 (Ю) 4000 м  слаб. ливневой снег  10/10 600 м кучево-дожд. 
[Cb cap]
-3.2 -4.1 93 -3  1026.5  -1.3  760  310           
18 21.11.17 170 (Ю) 4000 м  слаб. снег{ливн. осадки}  10/10 600 м 
[Ns]
-3.1 -3.9 94 -4  1023.4  -3  758  309           
21 21.11.17 190 (Ю) 4000 м  слаб. снег  10/10 300 м 
[Ns]
-2.7 -3.5 94 -4  1020.8  -2.7  756  308           
00 22.11.17 250 (З) 4000 м  слаб. снег  10/10 300 м 
[Ns]
-1.9 -2.7 94 -5  1020.7  0.1  756  307  -3.4    29  равномерный
сухой снег
100% 
03 22.11.17 270 (З) 4000 м  слаб. ливневой снег  10/10 600 м кучево-дожд. 
[Cb cap]
-1.5 -2.9 90 -2  1023.9  3.1  758  307           
06 22.11.17 260 (З) 20000 м  {ливн. осадки, снег}  10/6 600 м кучево-дожд., средняя 
[Cb cap|Ac und]
-1.3 -3.3 86 -3  1026.7  2.8  760  308           
09 22.11.17 260 (З) 20000 м    10/5 600 м средняя 
[Sc|As op]
-1.8 -4.2 84 -4  1029.1  2.3  762  309           
12 22.11.17 240 (ЮЗ) 20000 м    10/6 600 м средняя 
[Sc|As op]
-2.5 -4.2 88 -2  1030.3  1.2  763  311    -1.3  0.2     
15 22.11.17 210 (ЮЗ) 20000 м    10/10 600 м 
[Sc]
-3.3 -4.5 91 -3  1030.5  0.1  763  312           
18 22.11.17 220 (ЮЗ) 4000 м  слаб. снег  10/4 600 м средняя 
[Sc|As op]
-3.1 -3.9 94 -3  1030  -0.5  762  311           
21 22.11.17 110 (В) 20000 м  в посл. час снег  10/0 средняя 
[As op]
-3.5 -4.1 96 -3  1028.9  -1.1  762  311           
00 23.11.17 тихо ()   20000 м  {снег}  10/0 средняя 
[As op]
-3.1 -3.7 96 -3  1027.4  -1.4  761  310  -3.5    0.4  29  равномерный
сухой снег
100% 
03 23.11.17 120 (ЮВ) 4000 м  дымка  10/10 600 м 
[Sc]
-2.7 -3.2 96 -2  1025.9  -1.5  759  309           
06 23.11.17 200 (Ю) 4000 м  слаб. снег  10/5 600 м средняя 
[Sc|As op]
-1.7 -2.4 95 -1  1025.3  -0.5  759  308           
09 23.11.17 240 (ЮЗ) 20000 м  {снег}  10/8 600 м средняя 
[Sc|As op]
-2.7 -4.1 90 -5  1025.5  0.1  759  309           
12 23.11.17 240 (ЮЗ) 20000 м  {снег}  10/8 600 м средняя 
[Sc|As op]
-3.8 -5.1 91 -5  1025.2  -0.3  759  311    -1.6  0.0     
Время (UTC), дата Ветер
(°,м/с) 
Видим.   Явления Облачность Т
(°С)
Тd
(°С)
f(%) Тe
(°С)
Pmin
(гПа)
dP
(гПа)
Po
(мм)
O2
(г/м3)
Тmin Tmax R s Состояние
почвы

Для получения пояснительной информации подведите курсор к названию столбца.

ПОГОДА Максимкин Яр - архив

Всё, что Вы хотите узнать о погоде Максимкин Яр - удобно и подробно!

Выберите нужную дату (начиная с 1 января 2015* года) и нажмите кнопку "Найти".
Будут отображены архивные сводки погоды по пункту Максимкин Яр, начиная с указанной даты.


Отображать данные в формате CSV (для использования в таблицах Excel)


Внимание! Наш архив погоды предназначен исключительно для личного некоммерческого использования в познавательных целях. Если Вам необходимы официальные справки о состоянии погоды (для производственных, юридических, коммерческих и т.п. целей), обращайтесь в органы Росгидромета.

*Примечание: данная дата относится к архиву по метеостанциям СССР (Россия, СНГ, Балтия).
Архив по метеостанциям Зарубежной Европы и Азии (кроме Китая) хранится 10 дней, по другим регионам земного шара (Китай, Африка, Америка, Австралия, Океания) - 1 день.

Максимкин Яр - район местоположения метеостанции


Название, широта, долгота, высота метеостанции:
Максимкин Яр 58.6°ш. 86.7°д. 105 м над ур. моря [Российская Федерация]

Дополнительная информация

В oтличие oт бoльшинства пoгoдных сайтoв мы публикуем пoдрoбную метеoинфoрмацию в детальнoм прoфессиoнальнoм фoрмате.

Характеристики температуры и влажнoсти вoздуха измеряются на высoте 2 м в тени вдали oт зданий и деревьев.
Скoрoсть ветра измеряется на высoте 10 м (на урoвне рoста челoвека скoрoсть ветра ниже в 1.5-2 раза). Если метеoстанция нахoдится в гoрoде или в лесу, тo скoрoсть ветра занижена на 2-4 м/с пo сравнению с oткрытым местoм. Скoрoсть ветра над акватoриями крупных рек и oзёр, а также на вершинах хoлмoв на 2-5 м/с выше, чем в oбычных услoвиях.
Атмoсфернoе давление в разных тoчках местнoсти мoжет значительнo oтличаться oт давления на метеoстанции, в зависимoсти oт услoвий рельефа (при пoдъёме на 10 м давление пoнижается примернo на 1 мм рт.ст.).